Regional Weather Roundup
Issued by NWS Charleston, SC

Current Version | Previous Version | Graphics & Text | Print | Product List | Glossary On
Versions: 1 2 3 4 5 6 7 8 9 10 11 12 13 14 15 16 17 18 19 20 21 22 23 24 25 26 27 28 29 30 31 32 33 34 35 36 37 38 39 40 41 42 43 44 45 46 47 48 49 50
923
ASUS42 KCHS 311328
RWRCHS

REGIONAL WEATHER ROUNDUP
NATIONAL WEATHER SERVICE CHARLESTON SC
900 AM EDT TUE MAY 31 2016

NOTE: "FAIR" INDICATES FEW OR NO CLOUDS BELOW 12,000 FEET WITH NO
SIGNIFICANT WEATHER AND/OR OBSTRUCTIONS TO VISIBILITY.

NOT ALL STATIONS ARE QUALITY CONTROLLED. USE DATA WITH CAUTION...
ESPECIALLY DEWPOINT OBSERVATIONS.

SCZ027-030-031-034>040-042>050-311400-
...SOUTHEAST SOUTH CAROLINA...

CITY           SKY/WX    TMP DP  RH WIND       PRES   REMARKS
N CHARLESTON   PTSUNNY   75  70  84 NW7       29.94R
WATERFRONT PRK   N/A     73  71  93 VRB2      29.92R
MOUNT PLEASANT CLOUDY    73  72  94 NW6       29.94S
JOHNS ISLAND   PTSUNNY   77  72  83 NW7       29.94S
PINOPOLIS        N/A     73  70  88 N7        29.88R
MONCKS CORNER  CLOUDY    70  66  88 NW5       29.95S
SUMMERVILLE    CLOUDY    73  73 100 N5        29.97R
BEAUFORT MCAS  MOSUNNY   74  71  91 N5        29.95R
BEAUFORT ARPT  CLOUDY    73  70  88 N3        29.94R
HILTON HEAD IS MOSUNNY   75  70  83 N6        29.96R
WALTERBORO     CLOUDY    73  73 100 N6        29.97R
ALLENDALE      CLOUDY    72  70  94 N6        29.96S FOG

...SOUTHERN MIDLANDS AND PEE DEE...

CITY           SKY/WX    TMP DP  RH WIND       PRES   REMARKS
GEORGETOWN     PTSUNNY   72  68  88 N6        29.93S
KINGSTREE      CLOUDY    72  68  88 NW3       29.95R
ORANGEBURG     CLOUDY    74  69  85 VRB5      29.97R
BARNWELL       CLOUDY    73  73 100 NE7       29.98R
AIKEN          CLOUDY    70  68  94 NE6       30.02R FOG
MANNING        CLOUDY    72  70  94 N7        29.95S
COLUMBIA       CLOUDY    73  69  87 NW5       29.97R
SUMTER         CLOUDY    72  70  94 N7        29.94R
FLORENCE       PTSUNNY   75  70  84 N9        29.95R
MYRTLE BEACH   CLOUDY    73  64  73 N7        29.93R FOG
N MYRTLE BEACH LGT RAIN  74  71  91 N6        29.90R

$$

GAZ063-065-086>088-099>101-113>116-118-119-134>141-150-311400-
...SOUTHEAST GEORGIA...

CITY           SKY/WX    TMP DP  RH WIND       PRES   REMARKS
SAVANNAH ARPT  MOSUNNY   78  70  76 N7        29.94R
HUNTER AAF     SUNNY     78  73  85 VRB6      29.92R
FORT STEWART   SUNNY     79  68  70 NE1       29.92R
STATESBORO     SUNNY     78  73  84 NE3       29.96R
SYLVANIA       SUNNY     79  73  80 NE5       29.97R
CLAXTON        FAIR      80  72  76 N5        29.95S

...CSRA...CENTRAL AND FAR SOUTHEAST GEORGIA...

CITY           SKY/WX    TMP DP  RH WIND       PRES   REMARKS
THOMSON        MOSUNNY   78  73  86 NE8       30.02S
AUGUSTA-BUSH   SUNNY     76  70  82 NE5       29.97R
AUGUSTA-DANIEL SUNNY     78  69  73 N6        29.98R
SWAINSBORO     FAIR      79  70  73 E5        29.97R
VIDALIA        SUNNY     81  68  65 E5        29.95S
EASTMAN        FAIR      81  67  63 E3        29.97S
HAZLEHURST     FAIR      82  67  61 CALM      29.94S
ALMA           SUNNY     77  69  76 CALM      29.94R
WAYCROSS       SUNNY     76  69  80 CALM      29.95S
JESUP          FAIR      73  66  78 CALM      29.95R
BAXLEY         FAIR      82  68  61 CALM      29.94S
BRUNSWICK      SUNNY     82  72  69 W6        29.95S
SAINT SIMONS   SUNNY     77  70  79 W8        29.93R

$$

SCZ027-028-034-036>038-045-046-048>050-GAZ119-141-311400-
...LAKE AND SUPPLEMENTAL COASTAL OBSERVATIONS...

STATION/POSITION TIME  TEMP    WIND        PRES    WAVE   SWELL
                       AIR SEA DIR/SP/G            HT/PER HT/PER/DIR
                 (UTC) (F)     (DEG/KT/KT) (MB)    (FT/S) (FT/S/D)
WINYAH BAY       1245   72     340/  5     1012.0R
LAKE MURRAY      1200   68      30/  2/  4 1014.2R
ACE BASIN NERRS  1200   73      10/  1     1013.0S
FORT PULASKI     1300   75 76   20/  5/  6 1014.3R
SAPELO ISLAND    1300   76     280/  4     1014.0R

$$

ANZ835-935-AMZ111-154-330-350-352-354-370-450-454-472-311400-
...C-MAN AND BUOY OBSERVATIONS...

STATION/POSITION TIME  TEMP    WIND        PRES    WAVE   SWELL
                       AIR SEA DIR/SP/G            HT/PER HT/PER/DIR
                 (UTC) (F)     (DEG/KT/KT) (MB)    (FT/S) (FT/S/D)
BUOY 41004       1250   74 77  320/ 10/ 12 1012.4R   4/ 9   3/ 9
BUOY 41008       1250   76 77  290/  6/  8 1013.7R   3/ 9   3/ 80/ 9
FOLLY BEACH CMAN 1300   74     320/  4/  7 1013.8R
CAPERS NEARSHORE 1308   72 76  320/ 10/ 14 1013.6R
FRIPP NEARSHORE  1308   75 75  350/ 10/ 14 1013.2R


STATION/POSITION TIME  TEMP    WIND        PRES    WAVE   SWELL
                       AIR SEA DIR/SP/G            HT/PER HT/PER/DIR
                 (UTC) (F)     (DEG/KT/KT) (MB)    (FT/S) (FT/S/D)
5E ST. MARYS GA  1301      78                N/A     2/ 9
FRYING PAN BUOY  1300   76 78   CALM  /  2 1011.9R
BUOY 41025       1250   79 80  200/ 10/ 10 1013.7R   6/ 8   5/150/ 8
CAPE LOOKOUT NC  1300   76      40/  5/  6 1013.2R
BUOY 41002       1250   76 76  160/ 10/ 12 1015.5R   4/ 8   3/ 90/ 8
BUOY 41010       1220   79 79  190/ 10/ 10 1014.7R
ST AUGUSTINE FL  1300   78 79  270/ 11/ 13 1015.1R


$$




USA.gov is the U.S. government's official web portal to all federal, state and local government web resources and services.